This is the latest recevied weather packets stored in our database for station/object KC3BHK-2. If no packets are shown the sender has not sent any weather packets the latest 10 day(s).
| Time | Temp. | Humidity | Pressure | Rain* | Wind** | Luminosity | Snow |
|---|---|---|---|---|---|---|---|
| 1777751129 | 15.56° C | - | - | 0 mm | 3.58 m/s, 290° | - | - |
| 1777750824 | 16.11° C | - | - | 0 mm | 1.34 m/s, 308° | - | - |
| 1777750519 | 15° C | - | - | 0 mm | 3.58 m/s, 281° | - | - |
| 1777750215 | 15° C | - | - | 0 mm | 2.24 m/s, 269° | - | - |
| 1777749910 | 13.89° C | - | - | 0 mm | 2.68 m/s, 266° | - | - |
| 1777749605 | 13.89° C | - | - | 0 mm | 4.02 m/s, 287° | - | - |
| 1777749297 | 14.44° C | - | - | 0 mm | 4.02 m/s, 294° | - | - |
| 1777748993 | 15° C | - | - | 0 mm | 1.79 m/s, 347° | - | - |
| 1777748688 | 15° C | - | - | 0 mm | 0.45 m/s, 55° | - | - |
| 1777748384 | 15.56° C | - | - | 0 mm | 1.34 m/s, 293° | - | - |
| 1777748079 | 17.22° C | - | - | 0 mm | 1.34 m/s, 345° | - | - |
| 1777747775 | 17.22° C | - | - | 0 mm | 1.34 m/s, 273° | - | - |
| 1777747467 | 15° C | - | - | 0 mm | 1.79 m/s, 300° | - | - |
| 1777747162 | 15° C | - | - | 0 mm | 1.79 m/s, 307° | - | - |
| 1777746858 | 15° C | - | - | 0 mm | 2.24 m/s, 298° | - | - |
| 1777746553 | 15.56° C | - | - | 0 mm | 1.34 m/s, 217° | - | - |
| 1777746248 | 14.44° C | - | - | 0 mm | 2.24 m/s, 281° | - | - |
| 1777745944 | 15.56° C | - | - | 0 mm | 4.02 m/s, 288° | - | - |
| 1777745635 | 16.11° C | - | - | 0 mm | 2.68 m/s, 238° | - | - |
| 1777745331 | 15.56° C | - | - | 0 mm | 0.45 m/s, 245° | - | - |
| 1777745026 | 19.44° C | - | - | 0 mm | 5.36 m/s, 269° | - | - |
| 1777744721 | 18.33° C | - | - | 0 mm | 2.24 m/s, 276° | - | - |
| 1777744417 | 16.67° C | - | - | 0 mm | 0.45 m/s, 316° | - | - |
| 1777744112 | 16.11° C | - | - | 0 mm | 2.24 m/s, 319° | - | - |
| 1777743805 | 15.56° C | - | - | 0 mm | 0.89 m/s, 329° | - | - |
* Rain latest hour (hover to see other rain measurements)
** Current wind speed in m/s (hover to see current wind gust speed)